FENGYUN 2G AKM, 40369

Orbit data source: Space-Track

FENGYUN 2G AKM, 40369 is space debris in GEO originally from a launch on Wed, 31 Dec 2014 UTC launched from the Xichang Space Center, China (XSC). Debris objects in space refer to the collection of defunct objects orbiting the Earth. Examples of debris include non-operational satellites, rocket bodies, and fragments generated from explosions, collisions, or faulty payload assembly.

Loading next visibility...
Identifier
40369, 2014-090C
Orbit
GEO
Country
Flag of CNCN / PRC
Related business
Manufacturer
China ARMT
Mission
Spacecraft
Bus & Motor
SHANXI AKM, Unknown motor
Mass
~50 kg wet, ~50 kg dry
Launch date (UTC)
2014-12-31 (11 years ago)
Launch vehicle
Unknown
Launch site
Xichang Space Center, China (XSC)
Object type
Payload
Rocket body
Debris
Shape & HBR
Cyl + Cone, 0.8 m
Radar Cross Section
1.571 m², Medium (>0.1 m² and < 1m²)

Expand to show TLE details & history
Last TLE update: 3 days ago

TLE from 3 days ago
0 FENGYUN 2G AKM
1 40369U 14090C   26170.85509479  .00000091  00000-0  00000+0 0  9998
2 40369   7.5633  68.5803 0046611 172.3847 187.5632  0.99586975 41665
Epoch: 2026-06-19T20:31Z
TLE epoch observation values (Epoch: 2026-06-19T20:31:20.189Z)
Latitude
0.00001°
Longitude
-147.43652°
Altitude
36,175.401 km
Speed
3.054 km/s
True Right ascension
04h 33m 54s
True Declination
0° 00' 00"
Sunlit
Object was in daylight at epoch
Visualization orbit readout
Latitude
Unknown
Longitude
Unknown
Altitude
Unknown
Speed
Unknown
Apparent Right ascension
Unknown
Apparent Declination
Unknown
Sunlit
N/A
Visualization observer readout
Local Sidereal Time
21:39:55
Azimuth
Unknown
Elevation
Unknown
Doppler factor
Unknown
Orbital elements
Apogee altitude
36,178.149 km
Perigee altitude
35,783.271 km
Semi-major axis
42,358.847 km
Eccentricity
0.00466
Inclination
7.5633°
RAAN
68.5803°
Arg. of periapsis
172.3847°
True anomaly
187.4933°
Mean anomaly
187.5632°
Eccentric anomaly
187.52821°
Mean motion
0.24896 °/min
Orbital period
1,446.02 mins
BSTAR
0
Loading maneuver chart data...
Computing Atmospheric mass density...
Loading historical data...
Loading historical data...
Loading historical data...
Loading historical data...
Loading historical data...
Loading historical data...
Loading historical data...
Other satellites on launch #90 in the year 2014 (2014-12-31 UTC)

Documentation

Showing up to 5 results
|